This is the latest recevied weather packets stored in our database for station/object K7LDN-13. If no packets are shown the sender has not sent any weather packets the latest 10 day(s).
| Time | Temp. | Humidity | Pressure | Rain* | Wind** | Luminosity | Snow |
|---|---|---|---|---|---|---|---|
| 1777166083 | 15.56° C | 31% | 1007.6 hPa | 0 mm | - | 83 W/m² | - |
| 1777165780 | 15.56° C | 31% | 1007.5 hPa | 0 mm | - | 99 W/m² | - |
| 1777165477 | 15.56° C | 30% | 1007.6 hPa | 0 mm | - | 108 W/m² | - |
| 1777165173 | 15.56° C | 30% | 1007.6 hPa | 0 mm | - | 116 W/m² | - |
| 1777164869 | 15.56° C | 30% | 1007.7 hPa | 0 mm | - | 118 W/m² | - |
| 1777164567 | 15.56° C | 30% | 1007.7 hPa | 0 mm | - | 124 W/m² | - |
| 1777164262 | 16.11° C | 30% | 1007.7 hPa | 0 mm | - | 131 W/m² | - |
| 1777163962 | 16.11° C | 29% | 1007.8 hPa | 0 mm | - | 136 W/m² | - |
| 1777163656 | 16.11° C | 29% | 1007.5 hPa | 0 mm | - | 152 W/m² | - |
| 1777163351 | 16.11° C | 30% | 1007.8 hPa | 0 mm | - | 156 W/m² | - |
| 1777163048 | 16.67° C | 29% | 1007.7 hPa | 0 mm | - | 167 W/m² | - |
| 1777162742 | 16.67° C | 28% | 1007.7 hPa | 0 mm | - | 197 W/m² | - |
| 1777162437 | 17.22° C | 27% | 1007.8 hPa | 0 mm | - | 228 W/m² | - |
| 1777162136 | 16.67° C | 26% | 1007.8 hPa | 0 mm | - | 233 W/m² | - |
| 1777161832 | 16.67° C | 26% | 1007.9 hPa | 0 mm | - | 225 W/m² | - |
| 1777161524 | 16.67° C | 27% | 1008 hPa | 0 mm | - | 224 W/m² | - |
| 1777161220 | 16.67° C | 26% | 1007.9 hPa | 0 mm | - | 229 W/m² | - |
| 1777160916 | 16.67° C | 26% | 1008.3 hPa | 0 mm | - | 251 W/m² | - |
| 1777160612 | 17.22° C | 26% | 1008.2 hPa | 0 mm | - | 275 W/m² | - |
| 1777160308 | 17.22° C | 26% | 1008.2 hPa | 0 mm | - | 284 W/m² | - |
| 1777160004 | 17.22° C | 26% | 1008.3 hPa | 0 mm | - | 287 W/m² | - |
| 1777159700 | 16.67° C | 27% | 1008.3 hPa | 0 mm | - | 300 W/m² | - |
| 1777159396 | 16.67° C | 27% | 1008.4 hPa | 0 mm | - | 318 W/m² | - |
| 1777159093 | 16.67° C | 26% | 1008.5 hPa | 0 mm | - | 355 W/m² | - |
| 1777158789 | 16.67° C | 26% | 1008.4 hPa | 0 mm | - | 364 W/m² | - |
* Rain latest hour (hover to see other rain measurements)
** Current wind speed in m/s (hover to see current wind gust speed)